[[{"header":{"parameterUnit":"m.s-1","parameterCategory":1,"la1":30.2991,"la2":30.254,"lo1":-89.0895,"lo2":-89.0444,"dy":0.0017,"dx":0.0017,"nx":28,"ny":28,"refTime":"2025-01-17T09:00:00:Z","depth":0,"parameterNumber":2,"parameterNumberName":"U-component_of_WINDS"},"data":[0,0,0,0,0,0,0,0,0,0,0,0,0,0,0,0,0,0,0,0,0,0,0,0,0,0,0,0,0,0,0,0,0,0,0,0,0,0,0,0,0,0,0,0,0,0,0,0,0,0,0,0,0,0,0,0,0,0,-1.8452,-1.8453,0,-1.8514,-1.8515,-1.8516,-1.8539,-1.8538,-1.8538,-1.8538,-1.8597,-1.8599,-1.8601,0,0,0,0,0,0,0,0,0,0,0,0,0,-1.8351,-1.8353,-1.8452,-1.8453,-1.8454,-1.8514,-1.8515,-1.8516,-1.8539,-1.8538,-1.8538,-1.8538,-1.8597,-1.8599,-1.8601,0,0,0,0,0,0,0,0,0,0,0,0,0,-1.8402,-1.8353,-1.8452,-1.8472,-1.8475,-1.8514,-1.8515,-1.8516,-1.8539,-1.8538,-1.8538,-1.8538,-1.8596,-1.8599,-1.8601,-1.8623,0,0,-1.8609,-1.861,0,0,0,0,0,0,0,0,-1.8399,-1.8406,-1.8469,-1.8471,-1.8474,-1.8519,-1.8501,-1.8552,-1.8539,-1.8514,-1.8538,-1.8538,-1.8571,-1.8576,-1.8588,-1.8626,-1.8628,-1.861,-1.8611,-1.8612,-1.8613,0,0,0,0,0,0,0,-1.8396,-1.8403,-1.8477,-1.847,-1.8473,-1.8478,-1.8485,-1.8511,-1.8543,-1.8516,-1.8518,-1.8526,-1.8572,-1.8585,-1.8589,-1.8629,-1.8609,-1.8612,-1.8613,-1.8614,-1.8691,-1.8691,0,0,0,0,0,0,-1.8389,-1.84,-1.8475,-1.8478,-1.8435,-1.848,-1.8488,-1.8504,-1.8543,-1.8549,-1.8526,-1.8526,-1.8581,-1.8586,-1.8592,-1.8621,-1.8612,-1.8615,-1.8616,-1.869,-1.8691,-1.8691,0,0,0,0,0,0,-1.8387,-1.8395,-1.8472,-1.844,-1.845,-1.8482,-1.8501,-1.8506,-1.8519,-1.855,-1.8556,-1.8533,-1.8581,-1.8588,-1.8616,-1.8623,-1.8616,-1.8618,-1.869,-1.869,-1.8691,-1.8679,0,0,0,0,0,0,-1.8384,-1.8395,-1.8403,-1.844,-1.8452,-1.8496,-1.8501,-1.8507,-1.8524,-1.8525,-1.8559,-1.8564,-1.8581,-1.8612,-1.8619,-1.8627,-1.862,-1.8689,-1.869,-1.8691,-1.8679,-1.8679,-1.8679,0,0,0,0,0,-1.838,-1.8396,-1.8404,-1.8413,-1.8464,-1.8496,-1.8503,-1.8524,-1.8524,-1.8533,-1.8554,-1.8563,-1.8622,-1.8615,-1.8622,-1.8631,-1.8689,-1.869,-1.8691,-1.8678,-1.8679,-1.8679,0,0,0,0,0,0,-1.8357,-1.8401,-1.841,-1.8438,-1.8464,-1.85,-1.8512,-1.8523,-1.8547,-1.8547,-1.8571,-1.8579,-1.8605,-1.8621,-1.8612,-1.8656,-1.8656,-1.8658,-1.8644,-1.8644,-1.8645,-1.864,-1.8623,0,0,0,0,0,-1.8356,-1.838,-1.8416,-1.8438,-1.845,-1.8479,-1.8494,-1.8508,-1.8535,-1.8545,-1.8568,-1.8592,-1.8616,-1.8631,-1.8655,-1.8682,-1.869,-1.8692,-1.8692,-1.8692,-1.8694,-1.871,-1.8712,-1.8694,-1.8694,-1.8694,0,0,-1.8352,-1.8379,-1.8392,-1.8434,-1.8455,-1.8479,-1.8488,-1.8512,-1.8529,-1.8548,-1.8577,-1.8594,-1.8623,-1.8651,-1.8664,-1.8665,-1.8701,-1.8694,-1.8693,-1.8695,-1.8711,-1.8713,-1.8714,-1.8695,-1.8695,-1.8695,0,0,-1.8358,-1.8381,-1.8403,-1.8425,-1.8458,-1.8477,-1.8482,-1.8518,-1.8531,-1.856,-1.8576,-1.8597,-1.8638,-1.8658,-1.8674,-1.8691,-1.87,-1.8698,-1.8699,-1.8715,-1.8716,-1.8718,-1.8724,-1.8726,-1.87,-1.87,-1.87,0,-1.8349,-1.8386,-1.8411,-1.8436,-1.8454,-1.8475,-1.8497,-1.8516,-1.8555,-1.8566,-1.8567,-1.8621,-1.8642,-1.8675,-1.868,-1.8692,-1.8698,-1.8694,-1.8714,-1.8716,-1.8717,-1.8724,-1.8726,-1.87,-1.87,-1.87,-1.87,0,-1.8374,-1.84,-1.8413,-1.8453,-1.8472,-1.8495,-1.8523,-1.854,-1.8554,-1.8573,-1.8603,-1.863,-1.866,-1.8669,-1.8682,-1.8705,-1.8705,-1.871,-1.871,-1.8718,-1.8725,-1.8727,-1.8699,-1.8699,-1.8699,-1.8699,0,0,-1.8364,-1.842,-1.8424,-1.8443,-1.8483,-1.8503,-1.8527,-1.8559,-1.8573,-1.86,-1.8621,-1.8656,-1.8662,-1.868,-1.8695,-1.8709,-1.8722,-1.8713,-1.8714,-1.8714,-1.8751,-1.8746,-1.8749,-1.873,-1.873,-1.8731,-1.8748,0,-1.8376,-1.8421,-1.8446,-1.8481,-1.8505,-1.8527,-1.8549,-1.8575,-1.8594,-1.8617,-1.8639,-1.8664,-1.8669,-1.8681,-1.8696,-1.8718,-1.873,-1.8717,-1.8748,-1.8749,-1.874,-1.8752,-1.8747,-1.8762,-1.8751,-1.8751,-1.8752,0,-1.8394,-1.8423,-1.8461,-1.85,-1.8511,-1.853,-1.8562,-1.8584,-1.8615,-1.8628,-1.865,-1.8666,-1.8692,-1.8692,-1.8729,-1.8719,-1.8734,-1.8747,-1.8748,-1.8751,-1.875,-1.8754,-1.8767,-1.8769,-1.8756,-1.8756,-1.8755,0,-1.8383,-1.8432,-1.8461,-1.8477,-1.8523,-1.8536,-1.8555,-1.8586,-1.8604,-1.8632,-1.8645,-1.8675,-1.8691,-1.8714,-1.8737,-1.8735,-1.8772,-1.8773,-1.8783,-1.8782,-1.8788,-1.8787,-1.8803,-1.8799,-1.8799,-1.8799,-1.8799,0,-1.8392,-1.8415,-1.8457,-1.8475,-1.8501,-1.853,-1.8555,-1.8576,-1.8604,-1.8626,-1.8646,-1.8666,-1.8697,-1.8721,-1.874,-1.8767,-1.8775,-1.8786,-1.879,-1.8783,-1.8782,-1.8792,-1.8792,-1.88,-1.88,-1.8799,-1.8799,0,-1.8384,-1.8414,-1.8447,-1.849,-1.8501,-1.8518,-1.8554,-1.8572,-1.8594,-1.8622,-1.863,-1.8664,-1.8694,-1.872,-1.8759,-1.8771,-1.88,-1.8806,-1.879,-1.8792,-1.88,-1.8799,-1.8822,-1.8827,-1.882,-1.882,-1.882,0,-1.8387,-1.8406,-1.8451,-1.8469,-1.8488,-1.8516,-1.8536,-1.8565,-1.8584,-1.8623,-1.8636,-1.8668,-1.8695,-1.8741,-1.8768,-1.8798,-1.8805,-1.8811,-1.8809,-1.8802,-1.8804,-1.8803,-1.8805,-1.881,-1.881,-1.881,-1.881,0,-1.8391,-1.8405,-1.8434,-1.8468,-1.8492,-1.8519,-1.8548,-1.856,-1.8595,-1.8616,-1.8648,-1.8669,-1.871,-1.8741,-1.8775,-1.8794,-1.8808,-1.8811,-1.8815,-1.8807,-1.8797,-1.8803,-1.8789,-1.881,-1.881,-1.881,-1.881,-1.881,-1.8388,-1.8406,-1.8442,-1.8473,-1.8498,-1.8525,-1.8545,-1.8571,-1.8598,-1.8635,-1.8651,-1.8683,-1.8715,-1.8762,-1.8782,-1.8807,-1.881,-1.8815,-1.8816,-1.8817,-1.8816,-1.8794,-1.8814,-1.8814,-1.8814,-1.8814,-1.8814,0,-1.8392,-1.8417,-1.8446,-1.8487,-1.8512,-1.8525,-1.8558,-1.8577,-1.8606,-1.8636,-1.8663,-1.87,-1.8731,-1.8762,-1.8795,-1.8809,-1.8816,-1.8817,-1.8815,-1.882,-1.8812,-1.8805,-1.8811,-1.8811,-1.8811,-1.8811,-1.8811,-1.8811,-1.8397,-1.8429,-1.8448,-1.8493,-1.8517,-1.855,-1.8568,-1.8593,-1.8617,-1.8658,-1.8685,-1.8706,-1.8736,-1.8772,-1.8801,-1.8809,-1.882,-1.8819,-1.8829,-1.882,-1.882,-1.882,-1.8814,-1.8821,-1.8821,-1.8835,-1.8835,-1.8835]},{"header":{"parameterUnit":"m.s-1","parameterCategory":1,"la1":30.2991,"la2":30.254,"lo1":-89.0895,"lo2":-89.0444,"dy":0.0017,"dx":0.0017,"nx":28,"ny":28,"refTime":"2025-01-17T09:00:00:Z","depth":0,"parameterNumber":3,"parameterNumberName":"V-component_of_WINDS"},"data":[0,0,0,0,0,0,0,0,0,0,0,0,0,0,0,0,0,0,0,0,0,0,0,0,0,0,0,0,0,0,0,0,0,0,0,0,0,0,0,0,0,0,0,0,0,0,0,0,0,0,0,0,0,0,0,0,0,0,4.1087,4.1088,0,4.1218,4.122,4.1221,4.1209,4.1207,4.1205,4.1203,4.1338,4.1344,4.1349,0,0,0,0,0,0,0,0,0,0,0,0,0,4.0828,4.0832,4.1087,4.1088,4.109,4.1218,4.122,4.1222,4.1209,4.1207,4.1204,4.1202,4.1336,4.1343,4.1349,0,0,0,0,0,0,0,0,0,0,0,0,0,4.0948,4.0834,4.1086,4.1099,4.1102,4.1218,4.122,4.1222,4.121,4.1207,4.1204,4.1201,4.1334,4.1342,4.135,4.1462,0,0,4.1376,4.1379,0,0,0,0,0,0,0,0,4.0941,4.0957,4.1096,4.1098,4.1101,4.1194,4.1178,4.1303,4.121,4.1169,4.1203,4.1199,4.1293,4.1304,4.1336,4.1469,4.1474,4.1376,4.1381,4.1385,4.1387,0,0,0,0,0,0,0,4.0933,4.0952,4.1139,4.1098,4.1101,4.1099,4.1113,4.1202,4.1246,4.1172,4.1172,4.1187,4.1294,4.1328,4.1339,4.1476,4.1376,4.1383,4.1388,4.1392,4.1713,4.1716,0,0,0,0,0,0,4.0921,4.0945,4.1134,4.1143,4.1012,4.1106,4.1122,4.1167,4.1245,4.1254,4.119,4.1186,4.1315,4.1329,4.1343,4.1484,4.1385,4.1393,4.1397,4.1709,4.1714,4.1718,0,0,0,0,0,0,4.0915,4.0938,4.1129,4.1044,4.1068,4.1114,4.1165,4.1172,4.1206,4.1259,4.1267,4.1216,4.1313,4.1332,4.1434,4.1488,4.1396,4.1404,4.1705,4.1711,4.1716,4.1762,0,0,0,0,0,0,4.0908,4.0936,4.0978,4.1045,4.1072,4.1217,4.1169,4.1176,4.122,4.1216,4.1285,4.1294,4.1312,4.1422,4.1442,4.1498,4.141,4.1701,4.1708,4.1714,4.1756,4.1768,4.1779,0,0,0,0,0,4.0899,4.0985,4.098,4.1003,4.1126,4.122,4.1236,4.1255,4.1224,4.1268,4.1302,4.1292,4.1478,4.1432,4.1455,4.1514,4.1697,4.1706,4.1714,4.1751,4.1766,4.1779,0,0,0,0,0,0,4.0923,4.0994,4.099,4.1099,4.1154,4.1217,4.1273,4.127,4.1334,4.1328,4.1349,4.1365,4.1469,4.1501,4.1449,4.1629,4.1584,4.1597,4.1604,4.1619,4.163,4.1622,4.1417,0,0,0,0,0,4.0941,4.1011,4.1069,4.1161,4.1188,4.1226,4.1268,4.1278,4.1335,4.1358,4.14,4.1456,4.1528,4.1575,4.1643,4.176,4.1777,4.1812,4.1823,4.1832,4.1844,4.1913,4.193,4.1744,4.1744,4.1744,0,0,4.0979,4.1027,4.1069,4.1167,4.121,4.1284,4.1245,4.1323,4.1379,4.137,4.147,4.1503,4.1568,4.1679,4.173,4.1709,4.1899,4.1843,4.1849,4.1857,4.1923,4.1941,4.1956,4.175,4.1749,4.1748,0,0,4.1088,4.1129,4.1212,4.1257,4.1323,4.1348,4.1368,4.1433,4.1455,4.1556,4.1552,4.1618,4.174,4.1788,4.1828,4.1958,4.1952,4.1979,4.204,4.2107,4.2122,4.2135,4.2185,4.2203,4.199,4.199,4.199,0,4.1127,4.1237,4.1255,4.1336,4.138,4.1376,4.1462,4.1504,4.159,4.1621,4.1596,4.1752,4.1795,4.1919,4.1951,4.1982,4.2009,4.1973,4.2118,4.2131,4.2144,4.2192,4.2211,4.1993,4.1993,4.1993,4.1993,0,4.1284,4.1361,4.142,4.1505,4.1555,4.1638,4.167,4.172,4.1726,4.1754,4.1859,4.1911,4.1992,4.2021,4.2027,4.2148,4.2134,4.2113,4.2069,4.2165,4.2211,4.2229,4.1998,4.1997,4.1996,4.1995,0,0,4.1412,4.1507,4.1529,4.1569,4.1643,4.1703,4.1787,4.1866,4.1911,4.197,4.2043,4.2147,4.213,4.2176,4.2187,4.2245,4.235,4.2218,4.222,4.2245,4.2492,4.251,4.2531,4.2346,4.2349,4.2352,4.2488,0,4.153,4.1679,4.1699,4.1831,4.1904,4.1902,4.1976,4.203,4.2059,4.2126,4.2158,4.2234,4.2203,4.2231,4.2288,4.2325,4.2401,4.2315,4.2417,4.242,4.2405,4.2554,4.2572,4.2698,4.2505,4.2508,4.2511,0,4.1689,4.1755,4.1894,4.1963,4.1994,4.206,4.2137,4.22,4.2263,4.228,4.2333,4.2338,4.2427,4.2377,4.2502,4.2444,4.2486,4.2511,4.2516,4.2529,4.2474,4.2575,4.2738,4.2758,4.2538,4.2536,4.2534,0,4.1773,4.1896,4.1997,4.2031,4.2111,4.2159,4.2194,4.2254,4.2302,4.2369,4.2401,4.2477,4.252,4.258,4.2606,4.2567,4.2731,4.2683,4.2751,4.2751,4.2788,4.2786,4.2964,4.2809,4.2809,4.2809,4.2808,0,4.1906,4.1992,4.2037,4.2099,4.2197,4.222,4.2317,4.2351,4.2405,4.2475,4.2477,4.2543,4.2573,4.2644,4.2665,4.2768,4.2786,4.2805,4.281,4.2807,4.2806,4.2838,4.2831,4.2814,4.2812,4.2811,4.2811,0,4.2017,4.205,4.2161,4.2229,4.2248,4.2318,4.2377,4.2439,4.2467,4.2557,4.2579,4.2625,4.271,4.2742,4.2844,4.2859,4.2979,4.2975,4.2959,4.2961,4.303,4.3024,4.3238,4.3269,4.3089,4.3091,4.3092,0,4.2102,4.2169,4.2245,4.2293,4.2331,4.2407,4.2457,4.2482,4.2534,4.2613,4.2666,4.275,4.2819,4.2955,4.2999,4.3078,4.3079,4.3148,4.3091,4.3087,4.3086,4.3083,4.3092,4.316,4.3162,4.3163,4.3164,0,4.225,4.2263,4.2335,4.2414,4.2473,4.2536,4.2597,4.2636,4.2671,4.2729,4.2817,4.2871,4.2977,4.3062,4.3145,4.3183,4.3182,4.3182,4.3203,4.3202,4.3192,4.3203,4.2992,4.3178,4.3176,4.3175,4.3175,4.3174,4.2354,4.2415,4.2479,4.256,4.2609,4.2667,4.273,4.2767,4.284,4.293,4.294,4.3035,4.3099,4.321,4.3252,4.3328,4.3309,4.3338,4.3347,4.3354,4.3362,4.3177,4.3342,4.3342,4.3341,4.3341,4.3341,0,4.2506,4.2547,4.2621,4.2708,4.2773,4.2764,4.2832,4.2887,4.2971,4.3031,4.31,4.3202,4.3286,4.3336,4.3421,4.3472,4.3474,4.3494,4.3492,4.3502,4.3371,4.3347,4.3491,4.3491,4.3491,4.3491,4.3491,4.3491,4.2592,4.2698,4.2719,4.285,4.2891,4.2984,4.3025,4.3079,4.3128,4.3242,4.3312,4.3344,4.3402,4.3491,4.3568,4.3581,4.3614,4.3637,4.3649,4.3526,4.3511,4.3496,4.3474,4.3643,4.3643,4.3774,4.3776,4.3776]}]]